User: anonymous   Login
Location: Unspecified
(0.0000°N, 0.0000°E)
Time: 12:19:51
(UTC+00:00)
Language:

A-11 Canister half - Orbit

View from above orbital plane
View from above orbital plane
View from above satellite
View from above satellite

Ground track
Ground track

The orbit data is extracted from the following two-line orbital elements,

1 00051U 60009C   16209.99392451 -.00000069  00000-0  14588-3 0  9996
2 00051  47.2136  61.9348 0104053 259.8223  99.0816 12.18262625490917
Epoch (UTC): 27 July 2016 23:51:15
Eccentricity: 0.0104053
inclination: 47.2136°
perigee height: 1517 km
apogee height: 1683 km
right ascension of ascending node: 61.9348°
argument of perigee: 259.8223°
revolutions per day: 12.18262625
mean anomaly at epoch: 99.0816°
orbit number at epoch: 49091

The dashed part of the orbit path shows where the satellite is in the earth's shadow,  

DLR